[[{"header":{"parameterUnit":"m.s-1","parameterCategory":1,"la1":30.2992,"la2":30.254,"lo1":-89.0895,"lo2":-89.0443,"dy":0.0025,"dx":0.0025,"nx":19,"ny":19,"refTime":"2026-05-11T21:00:00:Z","depth":0,"parameterNumber":2,"parameterNumberName":"U-component_of_WINDS"},"data":[0,0,0,-3.3022,-3.3022,-3.3037,-3.3037,-3.3091,-3.3091,0,0,0,0,0,0,0,0,0,0,0,-3.3037,-3.3038,-3.3022,-3.3023,-3.3037,-3.3037,-3.3091,-3.3091,0,0,0,0,0,0,0,0,0,0,0,-3.3037,-3.3038,-3.3039,-3.3023,-3.3037,-3.3037,-3.309,-3.3067,0,0,0,0,0,0,0,0,0,0,-3.3047,-3.308,-3.3037,-3.3039,-3.3023,-3.3037,-3.3037,-3.3066,-3.3069,-3.3098,0,-3.3129,0,-3.3111,-3.3097,-3.3097,0,0,0,-3.3008,-3.3078,-3.3064,-3.3039,-3.3023,-3.3037,-3.3027,-3.3067,-3.3071,-3.3103,-3.3129,-3.313,-3.3112,-3.3098,-3.3098,-3.3314,-3.3316,0,0,-3.3008,-3.3051,-3.3061,-3.3067,-3.3065,-3.3026,-3.3027,-3.3069,-3.3101,-3.3129,-3.3131,-3.3113,-3.3098,-3.3099,-3.3312,-3.3314,0,0,0,-3.3015,-3.3051,-3.3035,-3.3066,-3.3066,-3.3027,-3.3028,-3.3099,-3.309,-3.3131,-3.3113,-3.3099,-3.31,-3.331,-3.3313,-3.3439,0,0,0,-3.3014,-3.3055,-3.3035,-3.3062,-3.3066,-3.3082,-3.3059,-3.3087,-3.309,-3.3113,-3.3099,-3.3101,-3.3308,-3.3312,-3.3431,-3.3492,0,0,0,-3.3029,-3.3056,-3.3065,-3.3064,-3.3072,-3.3081,-3.3074,-3.3087,-3.3081,-3.3097,-3.3101,-3.3307,-3.3311,-3.3425,-3.3481,-3.3563,0,0,0,-3.3059,-3.3177,-3.3068,-3.3193,-3.3072,-3.3157,-3.3073,-3.3134,-3.3163,-3.3099,-3.3309,-3.3313,-3.3422,-3.3474,-3.3556,-3.3642,-3.368,0,0,-3.3232,-3.32,-3.3269,-3.3172,-3.3288,-3.3151,-3.3286,-3.3272,-3.3234,-3.329,-3.3294,-3.3434,-3.348,-3.3562,-3.3879,-3.3911,0,0,0,-3.3339,-3.339,-3.3411,-3.344,-3.3432,-3.343,-3.3391,-3.3385,-3.343,-3.3271,-3.3483,-3.3509,-3.3555,-3.3594,-3.3621,-3.3659,-3.3332,-3.3331,-3.3331,-3.3649,-3.3593,-3.3705,-3.3651,-3.368,-3.3638,-3.3657,-3.3643,-3.3579,-3.363,-3.3647,-3.3847,-3.3894,-3.3913,-3.3953,-3.3685,-3.3686,-3.3686,-3.3687,-3.3899,-3.3964,-3.3873,-3.395,-3.3891,-3.3955,-3.3919,-3.3871,-3.3924,-3.3829,-3.3867,-3.3771,-3.3949,-3.3982,-3.3695,-3.3694,-3.3693,-3.3692,-3.3691,-3.4099,-3.412,-3.411,-3.4146,-3.418,-3.412,-3.4175,-3.4118,-3.4065,-3.4103,-3.4116,-3.4114,-3.4106,-3.4112,-3.4113,-3.4113,-3.4114,-3.4115,-3.4115,-3.4311,-3.4295,-3.4347,-3.4346,-3.4357,-3.4365,-3.4323,-3.4332,-3.4329,-3.4284,-3.4284,-3.4217,-3.3976,-3.3918,-3.4126,-3.4124,-3.4122,-3.4121,-3.4121,-3.4591,-3.4518,-3.4599,-3.461,-3.4604,-3.4643,-3.4568,-3.4593,-3.4593,-3.4622,-3.4545,-3.4375,-3.4339,-3.4317,-3.427,-3.4555,-3.4555,-3.4555,-3.4555,-3.4762,-3.4736,-3.4805,-3.4827,-3.4841,-3.4781,-3.4876,-3.4844,-3.48,-3.4797,-3.4746,-3.4677,-3.4657,-3.4632,-3.4604,-3.4559,-3.4911,-3.4912,-3.4912,-3.4932,-3.4905,-3.4996,-3.495,-3.4941,-3.4935,-3.5023,-3.5053,-3.4987,-3.4925,-3.4794,-3.4779,-3.4666,-3.4631,-3.4571,-3.4528,-3.4444,0,0]},{"header":{"parameterUnit":"m.s-1","parameterCategory":1,"la1":30.2992,"la2":30.254,"lo1":-89.0895,"lo2":-89.0443,"dy":0.0025,"dx":0.0025,"nx":19,"ny":19,"refTime":"2026-05-11T21:00:00:Z","depth":0,"parameterNumber":3,"parameterNumberName":"V-component_of_WINDS"},"data":[0,0,0,-3.4386,-3.439,-3.4562,-3.4563,-3.4778,-3.478,0,0,0,0,0,0,0,0,0,0,0,-3.4333,-3.4335,-3.4386,-3.439,-3.4562,-3.4563,-3.4778,-3.478,0,0,0,0,0,0,0,0,0,0,0,-3.4332,-3.4334,-3.4336,-3.4391,-3.4562,-3.4563,-3.4778,-3.4649,0,0,0,0,0,0,0,0,0,0,-3.4482,-3.4432,-3.4334,-3.4336,-3.4392,-3.4562,-3.4563,-3.4643,-3.4657,-3.4698,0,-3.4736,0,-3.4761,-3.4794,-3.4795,0,0,0,-3.4391,-3.442,-3.4468,-3.4336,-3.4393,-3.4561,-3.4485,-3.4651,-3.4667,-3.4717,-3.4739,-3.4747,-3.4765,-3.4796,-3.4797,-3.5033,-3.5034,0,0,-3.4382,-3.4363,-3.4457,-3.4479,-3.4453,-3.4479,-3.449,-3.4661,-3.4683,-3.474,-3.4752,-3.4769,-3.4797,-3.4799,-3.5033,-3.5034,0,0,0,-3.4353,-3.4356,-3.44,-3.447,-3.4501,-3.4484,-3.4497,-3.4675,-3.4691,-3.4755,-3.4771,-3.4798,-3.4801,-3.5031,-3.5033,-3.5067,0,0,0,-3.4348,-3.434,-3.4396,-3.4387,-3.4498,-3.4591,-3.4507,-3.4679,-3.4699,-3.477,-3.4799,-3.4803,-3.503,-3.5032,-3.5064,-3.5086,0,0,0,-3.4322,-3.4337,-3.4361,-3.4385,-3.4459,-3.4588,-3.4614,-3.4684,-3.4709,-3.4795,-3.4804,-3.503,-3.5032,-3.5061,-3.5081,-3.5143,0,0,0,-3.429,-3.439,-3.4362,-3.4479,-3.4457,-3.4608,-3.4613,-3.4727,-3.4805,-3.48,-3.503,-3.5033,-3.506,-3.5078,-3.5139,-3.5191,-3.5211,0,0,-3.4405,-3.4403,-3.4473,-3.4453,-3.4605,-3.4583,-3.4739,-3.4828,-3.4853,-3.4971,-3.4978,-3.5065,-3.5081,-3.5142,-3.5329,-3.5344,0,0,0,-3.4503,-3.4554,-3.4598,-3.4671,-3.4741,-3.4803,-3.487,-3.4902,-3.5004,-3.4911,-3.5104,-3.5114,-3.5151,-3.5176,-3.519,-3.5222,-3.5044,-3.5044,-3.5043,-3.464,-3.4667,-3.4784,-3.4831,-3.4902,-3.4969,-3.5028,-3.5084,-3.509,-3.5135,-3.517,-3.528,-3.531,-3.532,-3.5353,-3.52,-3.52,-3.52,-3.52,-3.4811,-3.4887,-3.4891,-3.5007,-3.5034,-3.5131,-3.5199,-3.5199,-3.5293,-3.5256,-3.529,-3.5247,-3.5336,-3.5367,-3.5203,-3.5202,-3.5202,-3.5202,-3.5202,-3.4904,-3.4945,-3.4982,-3.509,-3.517,-3.5213,-3.5303,-3.5324,-3.5344,-3.5377,-3.5416,-3.5416,-3.5418,-3.5394,-3.5395,-3.5395,-3.5395,-3.5396,-3.5396,-3.4986,-3.5027,-3.51,-3.5182,-3.5231,-3.5298,-3.5365,-3.5414,-3.5473,-3.5481,-3.5481,-3.5482,-3.534,-3.5304,-3.5402,-3.5401,-3.54,-3.5399,-3.5399,-3.515,-3.5115,-3.5229,-3.5278,-3.5375,-3.5452,-3.5477,-3.5574,-3.5617,-3.566,-3.5653,-3.5545,-3.5544,-3.5533,-3.5504,-3.5648,-3.5648,-3.5648,-3.5648,-3.5228,-3.5229,-3.5349,-3.5426,-3.5503,-3.5537,-3.5663,-3.5715,-3.5764,-3.5792,-3.5774,-3.5736,-3.5724,-3.573,-3.5716,-3.5688,-3.5876,-3.5876,-3.5876,-3.533,-3.5339,-3.5443,-3.5491,-3.5567,-3.5632,-3.5751,-3.5838,-3.5886,-3.5886,-3.5814,-3.5804,-3.5744,-3.5722,-3.5721,-3.5698,-3.5648,0,0]}]]